Location: Cold Norton
(51.6667°N, 0.6667°E)
Time: 16:38:29
(UTC+00:00)

SJ-12 - Pass Details

Date: 18 November 2025
Orbit: 517 x 528 km, 97.8° (Epoch: 10 December)

Event Time Altitude Azimuth Distance (km) Brightness Sun altitude
Rises 17:05:03 0° 154° (SSE) 2,644 7.2 -9.5°
Reaches altitude 10° 17:07:09 10° 151° (SSE) 1,758 6.3 -9.8°
Maximum altitude 17:10:52 58° 72° (ENE) 612 3.7 -10.4°
Drops below altitude 10° 17:14:37 10° 353° (N) 1,766 6.3 -10.9°
Sets 17:16:45 0° 349° (N) 2,657 7.2 -11.2°
